Simultaneous Nadir Overpasses (SNOs) Predictions

Prediction of SNOs between GOES-16 and LANDSAT-8 Satellite Orbit:

Table of predicted SNOs for the next 14.0 days since TLE Epoch: 7/29/2023
Index Date Time (GOES-16) GOES-16 Lat,Lon LANDSAT-8 Lat,Lon Distance(km) Time Diff (sec)
1 07/30/2023 15:08:59 0.01, -75.21 -0.25, -73.92 146.29 80
2 07/31/2023 03:30:24 -0.01, -75.21 -0.83, -79.12 444.59 80
3 08/01/2023 14:56:49 0.00, -75.22 -0.90, -70.97 482.71 80
4 08/02/2023 03:18:13 -0.00, -75.21 -0.23, -76.16 108.00 80
5 08/04/2023 03:03:23 -0.00, -75.23 0.43, -73.21 229.74 80
6 08/04/2023 15:24:39 0.00, -75.24 0.64, -78.37 355.48 80
7 08/06/2023 15:12:28 0.00, -75.26 0.02, -75.41 16.60 80
8 08/08/2023 15:02:57 0.00, -75.29 -0.61, -72.45 322.96 80
9 08/09/2023 03:24:21 -0.00, -75.29 -0.51, -77.64 266.87 80
10 08/11/2023 03:09:30 0.00, -75.32 0.15, -74.68 73.11 80
